Weather History for Thermopolis, WY

Change the Weather History Date:

Saturday, November 9, 2013

  Actual Average (KWRL) Record (KWRL)
Temperature  
Mean Temperature 34 °F 35 °F  
Max Temperature 37 °F 49 °F 67 °F (1964)
Min Temperature 30 °F 21 °F -11 °F (1966)
Degree Days  
Heating Degree Days 32 30  
Month to date heating degree days 254  
Since 1 July heating degree days 1116  
Cooling Degree Days 0 0  
Month to date cooling degree days 0  
Year to date cooling degree days 535  
Moisture  
Dew Point 22 °F    
Average Humidity 63    
Maximum Humidity 75    
Minimum Humidity 52    
Precipitation  
Precipitation 0.00 in 0.02 in 0.47 in (1992)
Month to date precipitation 0.12  
Year to date precipitation 7.11  
Sea Level Pressure  
Sea Level Pressure 30.21 in    
Wind  
Wind Speed 8 mph (ENE)    
Max Wind Speed 14 mph    
Max Gust Speed 22 mph    
Visibility 10 miles    
Events      
T = Trace of Precipitation, MM = Missing Value Source: NWS Daily Summary

Daily Weather History Graph

Daily Weather History Graph

Search for Another Location

Airport:

Trip Planner

Search our weather history database for the weather conditions in past years. The results will help you decide how hot, cold, wet, or windy it might be!

Date:

Astronomy

Nov. 09, 2013 Rise Set
Actual Time 6:59 AM MST 4:53 PM MST
Civil Twilight 6:28 AM MST 5:24 PM MST
Nautical Twilight 5:54 AM MST 5:58 PM MST
Astronomical Twilight 5:20 AM MST 6:32 PM MST
Moon 12:36 PM MST (11/9) 11:30 PM MST (11/9)
Length of Visible Light 10h 55m
Length of Day
9h 54m
Waxing Crescent, 45% of the Moon is Illuminated
Nov 9
Waxing Crescent
Nov 9
First Quarter
Nov 17
Full
Nov 25
Last Quarter
Dec 2
New

Hourly Weather History & Observations

Time (MST) Temp. Windchill Dew Point Humidity Pressure Visibility Wind Dir Wind Speed Gust Speed Precip Events Conditions
12:15 AM 35.6 °F 30.7 °F 19.4 °F 52% 30.08 in 10.0 mi SE 5.8 mph - N/A   Unknown
12:35 AM 35.6 °F 29.2 °F 19.4 °F 52% 30.08 in 10.0 mi ESE 8.1 mph - N/A   Unknown
12:55 AM 33.8 °F 27.7 °F 19.4 °F 56% 30.10 in 10.0 mi ESE 6.9 mph - N/A   Unknown
1:15 AM 35.6 °F 29.9 °F 19.4 °F 52% 30.10 in 10.0 mi East 6.9 mph - N/A   Unknown
1:35 AM 35.6 °F 31.7 °F 19.4 °F 52% 30.10 in 10.0 mi North 4.6 mph - N/A   Unknown
1:55 AM 32.0 °F 24.8 °F 21.2 °F 64% 30.12 in 10.0 mi North 8.1 mph - N/A   Unknown
2:15 AM 32.0 °F 23.0 °F 21.2 °F 64% 30.12 in 10.0 mi North 11.5 mph - N/A   Unknown
2:35 AM 32.0 °F 23.0 °F 19.4 °F 60% 30.12 in 10.0 mi North 11.5 mph - N/A   Unknown
2:55 AM 32.0 °F 23.0 °F 19.4 °F 60% 30.13 in 10.0 mi North 11.5 mph - N/A   Unknown
3:15 AM 32.0 °F 23.0 °F 19.4 °F 60% 30.13 in 10.0 mi North 11.5 mph - N/A   Unknown
3:35 AM 32.0 °F 23.0 °F 19.4 °F 60% 30.13 in 10.0 mi North 11.5 mph - N/A   Unknown
3:55 AM 32.0 °F 23.6 °F 19.4 °F 60% 30.14 in 10.0 mi North 10.4 mph - N/A   Unknown
4:15 AM 32.0 °F 23.6 °F 19.4 °F 60% 30.14 in 10.0 mi North 10.4 mph - N/A   Unknown
4:35 AM 32.0 °F 24.8 °F 19.4 °F 60% 30.15 in 10.0 mi North 8.1 mph - N/A   Unknown
4:55 AM 32.0 °F 24.2 °F 19.4 °F 60% 30.16 in 10.0 mi North 9.2 mph - N/A   Unknown
5:15 AM 32.0 °F 25.6 °F 19.4 °F 60% 30.16 in 10.0 mi North 6.9 mph - N/A   Unknown
5:35 AM 32.0 °F 24.2 °F 19.4 °F 60% 30.17 in 10.0 mi North 9.2 mph - N/A   Unknown
5:55 AM 32.0 °F 26.4 °F 21.2 °F 64% 30.18 in 10.0 mi ENE 5.8 mph - N/A   Unknown
6:15 AM 32.0 °F 27.5 °F 21.2 °F 64% 30.18 in 10.0 mi ENE 4.6 mph - N/A   Unknown
6:35 AM 32.0 °F 28.7 °F 21.2 °F 64% 30.18 in 10.0 mi North 3.5 mph - N/A   Unknown
6:55 AM 32.0 °F 25.6 °F 19.4 °F 60% 30.19 in 10.0 mi North 6.9 mph - N/A   Unknown
7:15 AM 32.0 °F 23.6 °F 19.4 °F 60% 30.20 in 10.0 mi North 10.4 mph - N/A   Unknown
7:35 AM 32.0 °F 22.5 °F 19.4 °F 60% 30.21 in 10.0 mi North 12.7 mph - N/A   Unknown
7:55 AM 32.0 °F 23.0 °F 19.4 °F 60% 30.21 in 10.0 mi North 11.5 mph - N/A   Unknown
8:15 AM 32.0 °F 24.2 °F 19.4 °F 60% 30.23 in 10.0 mi NNW 9.2 mph - N/A   Unknown
8:35 AM 32.0 °F 23.0 °F 21.2 °F 64% 30.23 in 10.0 mi NNW 11.5 mph - N/A   Unknown
8:55 AM 32.0 °F 23.6 °F 21.2 °F 64% 30.24 in 10.0 mi NW 10.4 mph - N/A   Unknown
9:15 AM 30.2 °F 21.9 °F 23.0 °F 75% 30.24 in 10.0 mi NW 9.2 mph - N/A   Unknown
9:35 AM 30.2 °F 24.3 °F 23.0 °F 75% 30.24 in 10.0 mi North 5.8 mph - N/A   Unknown
9:55 AM 32.0 °F 26.4 °F 23.0 °F 69% 30.24 in 10.0 mi East 5.8 mph - N/A   Unknown
10:15 AM 33.8 °F 24.3 °F 21.2 °F 60% 30.24 in 10.0 mi ESE 13.8 mph - N/A   Unknown
10:35 AM 33.8 °F 28.6 °F 23.0 °F 65% 30.26 in 10.0 mi ESE 5.8 mph - N/A   Unknown
10:55 AM 33.8 °F 27.7 °F 23.0 °F 65% 30.26 in 10.0 mi ESE 6.9 mph - N/A   Unknown
11:15 AM 32.0 °F - 24.8 °F 75% 30.26 in 10.0 mi Calm Calm - N/A   Unknown
11:35 AM 32.0 °F 26.4 °F 24.8 °F 75% 30.25 in 10.0 mi NW 5.8 mph - N/A   Unknown
11:55 AM 32.0 °F 25.6 °F 24.8 °F 75% 30.25 in 10.0 mi NNW 6.9 mph - N/A   Unknown
12:15 PM 32.0 °F 27.5 °F 24.8 °F 75% 30.24 in 10.0 mi North 4.6 mph - N/A   Unknown
12:35 PM 35.6 °F 27.5 °F 23.0 °F 60% 30.23 in 10.0 mi ESE 11.5 mph - N/A   Unknown
12:55 PM 35.6 °F 31.7 °F 24.8 °F 65% 30.23 in 10.0 mi SE 4.6 mph - N/A   Unknown
1:15 PM 33.8 °F - 26.6 °F 75% 30.24 in 10.0 mi Calm Calm - N/A   Unknown
1:35 PM 37.4 °F 33.8 °F 26.6 °F 65% 30.23 in 10.0 mi East 4.6 mph - N/A   Unknown
1:55 PM 37.4 °F 30.3 °F 23.0 °F 56% 30.22 in 10.0 mi ESE 10.4 mph - N/A   Unknown
2:15 PM 37.4 °F 31.4 °F 23.0 °F 56% 30.23 in 10.0 mi SE 8.1 mph - N/A   Unknown
2:35 PM 35.6 °F 31.7 °F 26.6 °F 70% 30.24 in 10.0 mi NNW 4.6 mph - N/A   Unknown
2:55 PM 33.8 °F 29.6 °F 26.6 °F 75% 30.24 in 10.0 mi NNW 4.6 mph - N/A   Unknown
3:15 PM 33.8 °F 29.6 °F 26.6 °F 75% 30.24 in 10.0 mi North 4.6 mph - N/A   Unknown
3:35 PM 33.8 °F 30.8 °F 26.6 °F 75% 30.24 in 10.0 mi NE 3.5 mph - N/A   Unknown
3:55 PM 37.4 °F - 26.6 °F 65% 30.24 in 10.0 mi Calm Calm - N/A   Unknown
4:15 PM 37.4 °F 30.8 °F 23.0 °F 56% 30.24 in 10.0 mi ESE 9.2 mph - N/A   Unknown
4:35 PM 37.4 °F 30.3 °F 23.0 °F 56% 30.24 in 10.0 mi ESE 10.4 mph - N/A   Unknown
4:55 PM 37.4 °F 29.3 °F 23.0 °F 56% 30.24 in 10.0 mi ESE 12.7 mph - N/A   Unknown
5:15 PM 37.4 °F 29.3 °F 23.0 °F 56% 30.24 in 10.0 mi ESE 12.7 mph - N/A   Unknown
5:35 PM 37.4 °F 30.8 °F 23.0 °F 56% 30.25 in 10.0 mi ESE 9.2 mph - N/A   Unknown
5:55 PM 35.6 °F 29.9 °F 23.0 °F 60% 30.26 in 10.0 mi East 6.9 mph - N/A   Unknown
6:15 PM 37.4 °F 30.3 °F 23.0 °F 56% 30.26 in 10.0 mi ESE 10.4 mph - N/A   Unknown
6:35 PM 35.6 °F 28.0 °F 23.0 °F 60% 30.26 in 10.0 mi ESE 10.4 mph - N/A   Unknown
6:55 PM 35.6 °F 28.6 °F 23.0 °F 60% 30.26 in 10.0 mi SE 9.2 mph - N/A   Unknown
7:55 PM 35.6 °F 26.6 °F 23.0 °F 60% 30.26 in 10.0 mi SE 13.8 mph - N/A   Unknown
8:15 PM 35.6 °F 26.6 °F 23.0 °F 60% 30.27 in 10.0 mi SE 13.8 mph - N/A   Unknown
8:35 PM 35.6 °F 27.1 °F 23.0 °F 60% 30.27 in 10.0 mi SE 12.7 mph - N/A   Unknown
8:55 PM 33.8 °F 25.8 °F 23.0 °F 65% 30.27 in 10.0 mi SE 10.4 mph - N/A   Unknown
9:15 PM 33.8 °F 24.3 °F 23.0 °F 65% 30.26 in 10.0 mi SE 13.8 mph - N/A   Unknown
9:35 PM 33.8 °F 25.8 °F 23.0 °F 65% 30.27 in 10.0 mi SSE 10.4 mph - N/A   Unknown
9:55 PM 33.8 °F 25.3 °F 23.0 °F 65% 30.27 in 10.0 mi SE 11.5 mph - N/A   Unknown
10:15 PM 33.8 °F 25.3 °F 23.0 °F 65% 30.27 in 10.0 mi SSE 11.5 mph - N/A   Unknown
10:35 PM 33.8 °F 25.3 °F 23.0 °F 65% 30.26 in 10.0 mi SSE 11.5 mph - N/A   Unknown
10:55 PM 33.8 °F 25.3 °F 23.0 °F 65% 30.27 in 10.0 mi SSE 11.5 mph - N/A   Unknown
11:15 PM 33.8 °F 24.3 °F 23.0 °F 65% 30.26 in 10.0 mi SSE 13.8 mph 19.6 mph N/A   Unknown
11:35 PM 33.8 °F 25.8 °F 23.0 °F 65% 30.26 in 10.0 mi SSE 10.4 mph 21.9 mph N/A   Unknown
11:55 PM 32.0 °F 22.1 °F 23.0 °F 69% 30.26 in 10.0 mi SSE 13.8 mph - N/A   Unknown